Location: Colonia Mina de C?rbuni
(46.1667°N, 22.7167°E)
Time: 17:19:15
(UTC+00:00)

ISS - Visible Passes

Search period start: 27 February 2024 00:00
Search period end: 08 March 2024 00:00
Orbit: 414 x 422 km, 51.6° (Epoch: 27 February)

Date Brightness Start Highest point End Pass type
(mag) Time Alt. Az. Time Alt. Az. Time Alt. Az.
27 Feb -2.5 03:34:10 28° NNW 03:34:53 31° N 03:37:58 10° ENE visible
28 Feb -1.6 02:48:08 25° NE 02:48:08 25° NE 02:50:01 10° ENE visible
28 Feb -2.6 04:21:04 10° WNW 04:24:13 38° NNE 04:27:26 10° E visible
29 Feb -0.1 02:02:04 10° ENE 02:02:04 10° ENE 02:02:05 10° ENE visible
29 Feb -2.4 03:35:00 25° NNW 03:36:12 33° N 03:39:19 10° ENE visible
01 Mar -1.9 02:48:55 27° NNE 02:48:55 27° NNE 02:51:12 10° ENE visible
01 Mar -3.3 04:21:57 10° WNW 04:25:19 61° NNE 04:28:40 10° ESE visible
02 Mar -0.3 02:02:49 12° ENE 02:02:49 12° ENE 02:03:04 10° ENE visible
02 Mar -2.9 03:35:44 26° NW 03:37:16 46° NNE 03:40:33 10° E visible
03 Mar -2.3 02:49:39 35° NE 02:49:39 35° NE 02:52:20 10° E visible
03 Mar -3.7 04:22:44 10° WNW 04:26:05 65° SSW 04:29:26 10° SE visible
04 Mar -0.4 02:03:35 13° ENE 02:03:35 13° ENE 02:04:03 10° ENE visible
04 Mar -3.8 03:36:31 30° WNW 03:38:02 84° NNE 03:41:24 10° ESE visible
05 Mar -2.8 02:50:29 49° ENE 02:50:29 49° ENE 02:53:14 10° ESE visible
05 Mar -2.5 04:23:34 10° W 04:26:29 27° SW 04:29:23 10° SSE visible
06 Mar -0.5 02:04:31 13° E 02:04:31 13° E 02:04:55 10° E visible
06 Mar -3.3 03:37:27 32° W 03:38:26 42° SW 03:41:39 10° SE visible
07 Mar -2.4 02:51:36 34° SE 02:51:36 34° SE 02:53:38 10° SE visible
07 Mar -1.5 04:25:26 10° WSW 04:26:30 11° SW 04:27:34 10° SSW visible
